Tracking 30264 objects as of 15-Feb-2025
HD Live streaming from Space Station
objects crossing your sky now

STARLINK-4111

Track STARLINK-4111 now!
10-day predictions
STARLINK-4111 is classified as:


NORAD ID: 53159
Int'l Code: 2022-083AD
Perigee: 545.9 km
Apogee: 547.9 km
Inclination: 53.2 °
Period: 95.4 minutes
Semi major axis: 6917 km
RCS: Unknown
Launch date: July 17, 2022
Source: United States (US)
Launch site: AIR FORCE EASTERN TEST RANGE (AFETR)
Your satellite tracking list
Your tracking list is empty




NASA's NSSDC Master Catalog

Two Line Element Set (TLE):
1 53159U 22083AD  25046.46924997 -.00000816  00000-0 -33183-4 0  9994
2 53159  53.2165 102.4184 0001450 108.9117 251.2032 15.08840230142906
Source of the keplerian elements: AFSPC